Regional Weather Roundup
Issued by NWS

Home | Current Version | Previous Version | Text Only | Print | Product List | Glossary On
Versions: 1 2 3 4 5 6 7 8 9 10 11 12 13 14 15 16 17 18 19 20 21 22 23 24 25 26 27 28 29 30 31 32 33 34 35 36 37 38 39 40 41 42 43 44 45 46 47 48 49 50
000
ASUS43 KLMK 311910
RWRKY
KENTUCKY REGIONAL WEATHER ROUNDUP
NATIONAL WEATHER SERVICE LOUISVILLE KY
200 PM EST SAT JAN 31 2015

NOTE "FAIR" INDICATES FEW OR NO CLOUDS BELOW 12,000 FEET
WITH NO SIGNIFICANT WEATHER AND/OR OBSTRUCTIONS TO VISIBILITY.

KYZ001>023-026-027-061>063-070>075-312000-
WESTERN AND SOUTH CENTRAL KENTUCKY

CITY           SKY/WX    TMP DP  RH WIND       PRES   REMARKS
PADUCAH        CLOUDY    44  23  43 CALM      30.32F
HENDERSON      CLOUDY    41  23  48 SW9       30.35R
OWENSBORO      CLOUDY    42  25  51 SW7       30.35F
HOPKINSVILLE   PTSUNNY   46  19  34 VRB3      30.32F
BOWLING GREEN  CLOUDY    44  23  43 SW6       30.36F
GLASGOW        PTSUNNY   40  22  48 SW8       30.34F
$$

KYZ024-025-028>034-038-045-046-053-312000-
NORTH CENTRAL KENTUCKY

CITY           SKY/WX    TMP DP  RH WIND       PRES   REMARKS
LOUISVILLE/SDF CLOUDY    42  20  41 VRB6      30.33F
LOUISVILLE/LOU PTSUNNY   41  19  41 S5        30.33F
FORT KNOX      CLOUDY    40  21  47 S7        30.32F
$$

KYZ035>037-039>044-047>052-055>060-089>105-312000-
NORTHEAST KENTUCKY

CITY           SKY/WX    TMP DP  RH WIND       PRES   REMARKS
LEXINGTON      PTSUNNY   40  19  43 W9        30.32F WCI  34
COVINGTON      CLOUDY    38  19  46 SW9       30.29F WCI  31
FRANKFORT      PTSUNNY   40  16  37 W8        30.31F WCI  34
$$

KYZ054-064>069-076>088-106>120-312000-
SOUTHEAST KENTUCKY

CITY           SKY/WX    TMP DP  RH WIND       PRES   REMARKS
JACKSON        MOSUNNY   38  15  39 VRB6      30.30F WCI  33
LONDON         CLOUDY    40   9  28 VRB5      30.31F
SOMERSET       PTSUNNY   37  12  35 CALM      30.34F
MIDDLESBORO    CLOUDY    40  17  38 CALM      30.33F
MONTICELLO     PTCLDY    45  14  28 CALM      30.35F
$$



USA.gov is the U.S. government's official web portal to all federal, state and local government web resources and services.